Location: La Brionne
(46.1728°N, 1.7849°E)
Time: 19:42:06
(UTC+00:00)

USA 267 - Pass Details

Date: 28 October 2021
Orbit: 1101 x 1107 km, 123.0° (Epoch: 27 November)

Event Time Altitude Azimuth Distance (km) Brightness Sun altitude
Exits shadow 18:33:12 15° 140° (SE) 2,621 4.9 -19.4°
Maximum altitude 18:38:49 69° 221° (SW) 1,174 3.5 -20.3°
Drops below altitude 10° 18:45:20 10° 305° (NW) 2,963 6.3 -21.5°
Sets 18:47:51 0° 308° (NW) 3,924 7.0 -21.9°
